PIA453 OPLA-OPSD

Flight info

Callsign PIA453
Flight time N/A
Altitude 32000
Route AKBER1D AKBER DCT MATIN DCT ISDUR DCT RN DCT KAGLO J186 KAPMI J154 BUNGI DCT DELDA DCT BIREB DCT SD DCT
Aircraft A320/M-SDE3FGHIRWY/LB1

Departure

Time N/A
Airport Allama Iqbal International Airport (OPLA)

Arrival

Time 2026-05-05 19:04
Airport Skardu International Airport (OPSD)
Time Latitude Longitude Altitude Speed Heading
2026-05-05 18:54 35.51581 75.36573 15244 ft 269 kts 148°
2026-05-05 18:55 35.50026 75.37810 15081 ft 269 kts 139°
2026-05-05 18:55 35.48672 75.39367 14866 ft 266 kts 134°
2026-05-05 18:55 35.47360 75.40979 14538 ft 268 kts 136°
2026-05-05 18:55 35.45974 75.42531 14185 ft 271 kts 138°
2026-05-05 18:56 35.44544 75.44102 13804 ft 274 kts 138°
2026-05-05 18:56 35.43131 75.45643 13419 ft 276 kts 138°
2026-05-05 18:56 35.41626 75.47140 12962 ft 281 kts 142°
2026-05-05 18:56 35.40024 75.48568 12461 ft 288 kts 147°
2026-05-05 18:57 35.38326 75.49901 11949 ft 293 kts 148°
2026-05-05 18:57 35.36502 75.51054 11477 ft 297 kts 160°
2026-05-05 18:57 35.34538 75.51882 10974 ft 301 kts 162°
2026-05-05 18:57 35.32538 75.52652 10589 ft 301 kts 166°
2026-05-05 18:58 35.30464 75.53134 10284 ft 297 kts 170°
2026-05-05 18:58 35.28555 75.53928 10225 ft 285 kts 148°
2026-05-05 18:58 35.27170 75.55530 10246 ft 269 kts 122°
2026-05-05 18:58 35.26573 75.57610 10241 ft 253 kts 92°
2026-05-05 18:59 35.26889 75.59640 10239 ft 242 kts 60°
2026-05-05 18:59 35.28004 75.61144 10247 ft 241 kts 28°
2026-05-05 18:59 35.29582 75.61708 10237 ft 239 kts 356°
2026-05-05 18:59 35.31187 75.61246 10238 ft 234 kts 336°
2026-05-05 19:00 35.32617 75.60462 10263 ft 217 kts 334°
2026-05-05 19:00 35.33886 75.59623 10235 ft 199 kts 325°
2026-05-05 19:00 35.34963 75.58623 10228 ft 191 kts 320°
2026-05-05 19:00 35.36004 75.57633 10234 ft 189 kts 322°
2026-05-05 19:01 35.37049 75.56689 10238 ft 188 kts 323°
2026-05-05 19:01 35.38105 75.55738 10240 ft 188 kts 319°
2026-05-05 19:01 35.39034 75.54633 10080 ft 185 kts 303°
2026-05-05 19:01 35.39527 75.53204 9763 ft 182 kts 273°
2026-05-05 19:02 35.39223 75.51750 9392 ft 180 kts 232°
2026-05-05 19:02 35.38194 75.50936 8931 ft 182 kts 186°
2026-05-05 19:02 35.36967 75.51350 8244 ft 191 kts 149°
2026-05-05 19:02 35.35893 75.52334 7766 ft 188 kts 146°
2026-05-05 19:03 35.34818 75.53167 7418 ft 182 kts 149°
2026-05-05 19:03 35.33791 75.53974 7395 ft 172 kts 147°
2026-05-05 19:03 35.32891 75.54681 7392 ft 122 kts 148°
2026-05-05 19:03 35.32218 75.55204 7395 ft 108 kts 147°
2026-05-05 19:04 35.31908 75.55383 7357 ft 6 kts 68°